Time,TemperatureF,DewpointF,PressureIn,WindDirection,WindDirectionDegrees,WindSpeedMPH,WindSpeedGustMPH,Humidity,HourlyPrecipIn,Conditions,Clouds,dailyrainin,SoftwareType,DateUTC
2013-02-08 00:00:00,47.2,44.4,29.83,East,88,6.0,7.0,90,0.00,,,0.16,WeatherCatV1.00B22,2013-02-08 05:00:00,
2013-02-08 00:05:00,47.2,44.4,29.83,NE,37,7.0,7.0,90,0.00,,,0.00,WeatherCatV1.00B22,2013-02-08 05:05:00,
2013-02-08 00:10:00,47.1,44.3,29.83,NE,41,6.0,10.0,90,0.00,,,0.00,WeatherCatV1.00B22,2013-02-08 05:10:00,
2013-02-08 00:15:00,47.1,44.3,29.83,NE,46,6.0,8.0,90,0.00,,,0.00,WeatherCatV1.00B22,2013-02-08 05:15:00,
2013-02-08 00:20:00,47.1,44.3,29.83,NE,55,6.0,11.0,90,0.00,,,0.00,WeatherCatV1.00B22,2013-02-08 05:20:00,
2013-02-08 00:25:00,47.0,44.2,29.83,NE,34,7.0,10.0,90,0.00,,,0.00,WeatherCatV1.00B22,2013-02-08 05:25:00,
2013-02-08 00:30:00,47.0,44.2,29.83,NNE,32,6.0,7.0,90,0.00,,,0.00,WeatherCatV1.00B22,2013-02-08 05:30:00,
2013-02-08 00:35:00,46.9,44.1,29.83,NE,56,7.0,8.0,90,0.00,,,0.00,WeatherCatV1.00B22,2013-02-08 05:35:00,
2013-02-08 00:40:00,46.9,44.1,29.83,NE,50,4.0,8.0,90,0.00,,,0.00,WeatherCatV1.00B22,2013-02-08 05:40:00,
2013-02-08 00:45:00,46.8,44.0,29.83,NE,49,6.0,8.0,90,0.00,,,0.00,WeatherCatV1.00B22,2013-02-08 05:45:00,
2013-02-08 00:50:00,46.7,43.9,29.82,NE,53,3.0,7.0,90,0.00,,,0.00,WeatherCatV1.00B22,2013-02-08 05:50:00,
2013-02-08 00:55:00,46.7,44.2,29.82,NE,34,5.0,5.0,91,0.00,,,0.00,WeatherCatV1.00B22,2013-02-08 05:55:00,
2013-02-08 01:00:00,46.6,44.1,29.82,ENE,62,5.0,8.0,91,0.00,,,0.00,WeatherCatV1.00B22,2013-02-08 06:00:00,
2013-02-08 01:05:00,46.6,44.1,29.82,NE,44,5.0,7.0,91,0.00,,,0.00,WeatherCatV1.00B22,2013-02-08 06:05:00,
2013-02-08 01:10:00,46.5,44.0,29.82,ENE,69,3.0,5.0,91,0.00,,,0.00,WeatherCatV1.00B22,2013-02-08 06:10:00,
2013-02-08 01:15:00,46.5,44.0,29.82,NE,47,6.0,6.0,91,0.00,,,0.00,WeatherCatV1.00B22,2013-02-08 06:15:00,
2013-02-08 01:20:00,46.5,44.0,29.82,ENE,59,2.0,6.0,91,0.00,,,0.00,WeatherCatV1.00B22,2013-02-08 06:20:00,
2013-02-08 01:25:00,46.5,44.0,29.82,NE,34,4.0,6.0,91,0.00,,,0.00,WeatherCatV1.00B22,2013-02-08 06:25:00,
2013-02-08 01:30:00,46.5,44.0,29.83,NE,51,3.0,4.0,91,0.00,,,0.00,WeatherCatV1.00B22,2013-02-08 06:30:00,
2013-02-08 01:35:00,46.5,44.0,29.82,NE,55,3.0,3.0,91,0.00,,,0.00,WeatherCatV1.00B22,2013-02-08 06:35:00,
2013-02-08 01:40:00,46.5,43.7,29.83,NE,45,4.0,5.0,90,0.00,,,0.00,WeatherCatV1.00B22,2013-02-08 06:40:00,
2013-02-08 01:45:00,46.5,43.7,29.83,ENE,74,1.0,5.0,90,0.00,,,0.00,WeatherCatV1.00B22,2013-02-08 06:45:00,
2013-02-08 01:50:00,46.5,43.7,29.83,ENE,57,1.0,4.0,90,0.00,,,0.00,WeatherCatV1.00B22,2013-02-08 06:50:00,
2013-02-08 01:51:00,46.5,43.7,29.83,ENE,60,2.0,4.0,90,0.00,,,0.00,WeatherCatV1.00B22,2013-02-08 06:51:00,
2013-02-08 01:56:00,46.5,43.7,29.83,NE,51,4.0,6.0,90,0.00,,,0.00,WeatherCatV1.00B22,2013-02-08 06:56:00,
2013-02-08 02:01:00,46.5,43.7,29.83,East,80,2.0,5.0,90,0.00,,,0.00,WeatherCatV1.00B22,2013-02-08 07:01:00,
2013-02-08 02:06:00,46.5,43.7,29.83,NE,50,1.0,3.0,90,0.00,,,0.00,WeatherCatV1.00B22,2013-02-08 07:06:00,
2013-02-08 02:11:00,46.5,43.7,29.83,NE,48,2.0,3.0,90,0.00,,,0.00,WeatherCatV1.00B22,2013-02-08 07:11:00,
2013-02-08 02:16:00,46.5,43.7,29.83,NE,48,0.0,1.0,90,0.00,,,0.00,WeatherCatV1.00B22,2013-02-08 07:16:00,
2013-02-08 02:21:00,46.4,43.6,29.83,NE,48,0.0,1.0,90,0.00,,,0.00,WeatherCatV1.00B22,2013-02-08 07:21:00,
2013-02-08 02:26:00,46.4,43.6,29.83,NE,48,0.0,0.0,90,0.00,,,0.00,WeatherCatV1.00B22,2013-02-08 07:26:00,
2013-02-08 02:31:00,46.4,43.6,29.83,NE,49,0.0,1.0,90,0.00,,,0.00,WeatherCatV1.00B22,2013-02-08 07:31:00,
2013-02-08 02:32:00,46.4,43.6,29.83,NE,49,0.0,1.0,90,0.00,,,0.00,WeatherCatV1.00B22,2013-02-08 07:32:00,
2013-02-08 02:37:00,46.4,43.6,29.82,NE,49,0.0,0.0,90,0.00,,,0.00,WeatherCatV1.00B22,2013-02-08 07:37:00,
2013-02-08 02:42:00,46.4,43.9,29.82,NE,49,0.0,0.0,91,0.00,,,0.00,WeatherCatV1.00B22,2013-02-08 07:42:00,
2013-02-08 02:47:00,46.3,44.1,29.82,NE,49,0.0,0.0,92,0.00,,,0.00,WeatherCatV1.00B22,2013-02-08 07:47:00,
2013-02-08 02:52:00,46.3,44.1,29.82,NE,49,0.0,0.0,92,0.00,,,0.00,WeatherCatV1.00B22,2013-02-08 07:52:00,
2013-02-08 02:57:00,46.2,44.0,29.82,NE,49,0.0,0.0,92,0.00,,,0.00,WeatherCatV1.00B22,2013-02-08 07:57:00,
2013-02-08 03:02:00,46.2,44.3,29.82,NE,49,0.0,0.0,93,0.00,,,0.00,WeatherCatV1.00B22,2013-02-08 08:02:00,
2013-02-08 03:07:00,46.0,44.1,29.81,NE,49,0.0,0.0,93,0.00,,,0.00,WeatherCatV1.00B22,2013-02-08 08:07:00,
2013-02-08 03:12:00,46.0,44.1,29.81,NE,49,0.0,0.0,93,0.00,,,0.00,WeatherCatV1.00B22,2013-02-08 08:12:00,
2013-02-08 03:17:00,45.9,44.3,29.81,NE,49,0.0,0.0,94,0.00,,,0.00,WeatherCatV1.00B22,2013-02-08 08:17:00,
2013-02-08 03:22:00,45.8,44.2,29.81,NE,49,0.0,0.0,94,0.00,,,0.00,WeatherCatV1.00B22,2013-02-08 08:22:00,
2013-02-08 03:27:00,45.8,44.2,29.81,NE,49,0.0,0.0,94,0.00,,,0.00,WeatherCatV1.00B22,2013-02-08 08:27:00,
2013-02-08 03:32:00,45.7,44.1,29.81,NE,49,0.0,0.0,94,0.00,,,0.00,WeatherCatV1.00B22,2013-02-08 08:32:00,
2013-02-08 03:37:00,45.6,44.0,29.81,NE,49,0.0,0.0,94,0.00,,,0.00,WeatherCatV1.00B22,2013-02-08 08:37:00,
2013-02-08 03:42:00,45.6,44.0,29.81,NE,49,0.0,0.0,94,0.00,,,0.00,WeatherCatV1.00B22,2013-02-08 08:42:00,
2013-02-08 03:47:00,45.5,43.9,29.81,NE,49,0.0,0.0,94,0.00,,,0.00,WeatherCatV1.00B22,2013-02-08 08:47:00,
2013-02-08 03:52:00,45.5,44.2,29.80,NE,49,0.0,0.0,95,0.00,,,0.00,WeatherCatV1.00B22,2013-02-08 08:52:00,
2013-02-08 03:57:00,45.4,44.1,29.80,NE,49,0.0,0.0,95,0.00,,,0.00,WeatherCatV1.00B22,2013-02-08 08:57:00,
2013-02-08 04:02:00,45.4,44.1,29.80,NE,49,0.0,0.0,95,0.00,,,0.00,WeatherCatV1.00B22,2013-02-08 09:02:00,
2013-02-08 04:07:00,45.4,44.1,29.80,NE,49,0.0,0.0,95,0.00,,,0.00,WeatherCatV1.00B22,2013-02-08 09:07:00,
2013-02-08 04:12:00,45.4,44.1,29.81,NE,49,1.0,1.0,95,0.00,,,0.00,WeatherCatV1.00B22,2013-02-08 09:12:00,
2013-02-08 04:17:00,45.4,44.1,29.81,NE,49,1.0,1.0,95,0.00,,,0.00,WeatherCatV1.00B22,2013-02-08 09:17:00,
2013-02-08 04:22:00,45.4,44.1,29.81,NE,49,0.0,0.0,95,0.00,,,0.00,WeatherCatV1.00B22,2013-02-08 09:22:00,
2013-02-08 04:27:00,45.4,44.1,29.81,NE,49,0.0,0.0,95,0.00,,,0.00,WeatherCatV1.00B22,2013-02-08 09:27:00,
2013-02-08 04:32:00,45.4,44.1,29.81,NE,49,0.0,0.0,95,0.00,,,0.00,WeatherCatV1.00B22,2013-02-08 09:32:00,
2013-02-08 04:37:00,45.3,44.0,29.81,NE,49,0.0,0.0,95,0.00,,,0.00,WeatherCatV1.00B22,2013-02-08 09:37:00,
2013-02-08 04:42:00,45.4,44.1,29.81,NE,49,0.0,0.0,95,0.00,,,0.00,WeatherCatV1.00B22,2013-02-08 09:42:00,
2013-02-08 04:47:00,45.4,44.1,29.81,NE,49,0.0,0.0,95,0.00,,,0.00,WeatherCatV1.00B22,2013-02-08 09:47:00,
2013-02-08 04:52:00,45.4,44.3,29.81,NE,49,0.0,0.0,96,0.00,,,0.00,WeatherCatV1.00B22,2013-02-08 09:52:00,
2013-02-08 04:57:00,45.4,44.3,29.81,NE,49,0.0,0.0,96,0.00,,,0.00,WeatherCatV1.00B22,2013-02-08 09:57:00,
2013-02-08 05:02:00,45.4,44.3,29.81,NE,49,0.0,0.0,96,0.00,,,0.00,WeatherCatV1.00B22,2013-02-08 10:02:00,
2013-02-08 05:07:00,45.4,44.1,29.81,NE,49,0.0,0.0,95,0.00,,,0.00,WeatherCatV1.00B22,2013-02-08 10:07:00,
2013-02-08 05:12:00,45.4,44.3,29.81,NE,49,0.0,0.0,96,0.00,,,0.00,WeatherCatV1.00B22,2013-02-08 10:12:00,
2013-02-08 05:17:00,45.3,44.0,29.81,NE,49,0.0,0.0,95,0.00,,,0.00,WeatherCatV1.00B22,2013-02-08 10:17:00,
2013-02-08 05:22:00,45.3,44.0,29.82,NE,49,0.0,0.0,95,0.00,,,0.00,WeatherCatV1.00B22,2013-02-08 10:22:00,
2013-02-08 05:27:00,45.3,44.2,29.82,NE,49,0.0,0.0,96,0.00,,,0.00,WeatherCatV1.00B22,2013-02-08 10:27:00,
2013-02-08 05:32:00,45.3,44.2,29.81,NE,49,0.0,0.0,96,0.00,,,0.00,WeatherCatV1.00B22,2013-02-08 10:32:00,
2013-02-08 05:37:00,45.3,44.2,29.80,NE,49,0.0,0.0,96,0.00,,,0.00,WeatherCatV1.00B22,2013-02-08 10:37:00,
2013-02-08 05:42:00,45.3,44.2,29.81,NE,49,0.0,0.0,96,0.00,,,0.00,WeatherCatV1.00B22,2013-02-08 10:42:00,
2013-02-08 05:47:00,45.2,44.1,29.82,NE,49,0.0,1.0,96,0.00,,,0.00,WeatherCatV1.00B22,2013-02-08 10:47:00,
2013-02-08 05:52:00,45.2,44.1,29.83,NE,49,0.0,0.0,96,0.00,,,0.00,WeatherCatV1.00B22,2013-02-08 10:52:00,
2013-02-08 05:57:00,45.3,44.2,29.83,NE,49,2.0,2.0,96,0.00,,,0.00,WeatherCatV1.00B22,2013-02-08 10:57:00,
2013-02-08 06:02:00,45.3,44.2,29.83,NNE,23,1.0,2.0,96,0.00,,,0.00,WeatherCatV1.00B22,2013-02-08 11:02:00,
2013-02-08 06:07:00,45.3,44.2,29.83,WNW,294,0.0,1.0,96,0.00,,,0.00,WeatherCatV1.00B22,2013-02-08 11:07:00,
2013-02-08 06:12:00,45.3,44.2,29.84,WNW,294,0.0,0.0,96,0.00,,,0.00,WeatherCatV1.00B22,2013-02-08 11:12:00,
2013-02-08 06:17:00,45.3,44.2,29.83,WNW,294,0.0,0.0,96,0.00,,,0.00,WeatherCatV1.00B22,2013-02-08 11:17:00,
2013-02-08 06:22:00,45.3,44.2,29.83,WNW,294,1.0,1.0,96,0.00,,,0.00,WeatherCatV1.00B22,2013-02-08 11:22:00,
2013-02-08 06:27:00,45.3,44.2,29.84,WNW,294,0.0,0.0,96,0.00,,,0.00,WeatherCatV1.00B22,2013-02-08 11:27:00,
2013-02-08 06:32:00,45.3,44.2,29.84,WNW,294,0.0,0.0,96,0.00,,,0.00,WeatherCatV1.00B22,2013-02-08 11:32:00,
2013-02-08 06:37:00,45.4,44.3,29.84,WNW,294,0.0,0.0,96,0.00,,,0.00,WeatherCatV1.00B22,2013-02-08 11:37:00,
2013-02-08 06:42:00,45.4,44.3,29.84,WNW,294,0.0,0.0,96,0.00,,,0.00,WeatherCatV1.00B22,2013-02-08 11:42:00,
2013-02-08 06:47:00,45.4,44.3,29.84,WNW,294,0.0,0.0,96,0.00,,,0.00,WeatherCatV1.00B22,2013-02-08 11:47:00,
2013-02-08 06:52:00,45.4,44.3,29.83,WNW,294,0.0,0.0,96,0.00,,,0.00,WeatherCatV1.00B22,2013-02-08 11:52:00,
2013-02-08 06:57:00,45.4,44.3,29.83,WNW,294,0.0,0.0,96,0.00,,,0.00,WeatherCatV1.00B22,2013-02-08 11:57:00,
2013-02-08 07:01:00,45.4,44.3,29.84,WNW,294,0.0,0.0,96,0.00,,,0.00,WeatherCatV1.00B22,2013-02-08 12:01:00,
2013-02-08 07:06:00,45.4,44.3,29.85,WNW,294,0.0,0.0,96,0.00,,,0.00,WeatherCatV1.00B22,2013-02-08 12:06:00,
2013-02-08 07:11:00,45.4,44.3,29.85,WNW,294,0.0,1.0,96,0.00,,,0.00,WeatherCatV1.00B22,2013-02-08 12:11:00,
2013-02-08 07:16:00,45.4,44.3,29.85,WNW,294,0.0,1.0,96,0.00,,,0.00,WeatherCatV1.00B22,2013-02-08 12:16:00,
2013-02-08 07:21:00,45.4,44.3,29.86,WNW,294,0.0,0.0,96,0.00,,,0.00,WeatherCatV1.00B22,2013-02-08 12:21:00,
2013-02-08 07:26:00,45.5,44.4,29.86,WNW,294,0.0,0.0,96,0.00,,,0.00,WeatherCatV1.00B22,2013-02-08 12:26:00,
2013-02-08 07:31:00,45.5,44.4,29.86,WNW,294,0.0,0.0,96,0.00,,,0.00,WeatherCatV1.00B22,2013-02-08 12:31:00,
2013-02-08 07:36:00,45.5,44.4,29.86,WNW,294,0.0,0.0,96,0.00,,,0.00,WeatherCatV1.00B22,2013-02-08 12:36:00,
2013-02-08 07:41:00,45.5,44.4,29.86,WNW,294,0.0,0.0,96,0.00,,,0.00,WeatherCatV1.00B22,2013-02-08 12:41:00,
2013-02-08 07:46:00,45.5,44.4,29.86,WNW,294,0.0,0.0,96,0.00,,,0.00,WeatherCatV1.00B22,2013-02-08 12:46:00,
2013-02-08 07:51:00,45.5,44.4,29.86,WNW,294,0.0,0.0,96,0.00,,,0.00,WeatherCatV1.00B22,2013-02-08 12:51:00,
2013-02-08 07:56:00,45.5,44.4,29.86,WNW,294,0.0,0.0,96,0.00,,,0.00,WeatherCatV1.00B22,2013-02-08 12:56:00,
2013-02-08 08:01:00,45.5,44.4,29.86,WNW,294,0.0,0.0,96,0.00,,,0.00,WeatherCatV1.00B22,2013-02-08 13:01:00,
2013-02-08 08:06:00,45.5,44.4,29.85,WNW,294,0.0,0.0,96,0.00,,,0.00,WeatherCatV1.00B22,2013-02-08 13:06:00,
2013-02-08 08:11:00,45.4,44.3,29.85,WNW,294,0.0,0.0,96,0.00,,,0.00,WeatherCatV1.00B22,2013-02-08 13:11:00,
2013-02-08 08:16:00,45.4,44.3,29.86,WNW,294,0.0,0.0,96,0.00,,,0.00,WeatherCatV1.00B22,2013-02-08 13:16:00,
2013-02-08 08:21:00,45.6,44.5,29.86,WNW,294,0.0,0.0,96,0.00,,,0.00,WeatherCatV1.00B22,2013-02-08 13:21:00,
2013-02-08 08:26:00,45.7,44.6,29.86,WNW,294,0.0,0.0,96,0.00,,,0.00,WeatherCatV1.00B22,2013-02-08 13:26:00,
2013-02-08 08:31:00,45.8,45.0,29.86,WNW,294,0.0,1.0,97,0.00,,,0.00,WeatherCatV1.00B22,2013-02-08 13:31:00,
2013-02-08 08:36:00,46.0,44.9,29.86,WNW,294,1.0,1.0,96,0.00,,,0.00,WeatherCatV1.00B22,2013-02-08 13:36:00,
2013-02-08 08:41:00,46.1,45.0,29.86,WNW,294,0.0,0.0,96,0.00,,,0.00,WeatherCatV1.00B22,2013-02-08 13:41:00,
2013-02-08 08:46:00,46.3,45.2,29.87,WNW,286,0.0,2.0,96,0.00,,,0.00,WeatherCatV1.00B22,2013-02-08 13:46:00,
2013-02-08 08:51:00,46.7,45.6,29.87,WSW,240,0.0,3.0,96,0.00,,,0.00,WeatherCatV1.00B22,2013-02-08 13:51:00,
2013-02-08 08:56:00,47.0,45.6,29.86,West,273,0.0,0.0,95,0.00,,,0.00,WeatherCatV1.00B22,2013-02-08 13:56:00,
2013-02-08 09:01:00,47.1,45.5,29.86,West,277,0.0,1.0,94,0.00,,,0.00,WeatherCatV1.00B22,2013-02-08 14:01:00,
2013-02-08 09:06:00,47.3,45.7,29.87,West,275,0.0,0.0,94,0.00,,,0.00,WeatherCatV1.00B22,2013-02-08 14:06:00,
2013-02-08 09:11:00,47.6,46.0,29.87,WNW,284,0.0,0.0,94,0.00,,,0.00,WeatherCatV1.00B22,2013-02-08 14:11:00,
2013-02-08 09:16:00,47.9,46.3,29.87,WNW,284,0.0,1.0,94,0.00,,,0.00,WeatherCatV1.00B22,2013-02-08 14:16:00,
2013-02-08 09:21:00,48.2,46.3,29.88,NW,306,2.0,3.0,93,0.00,,,0.00,WeatherCatV1.00B22,2013-02-08 14:21:00,
2013-02-08 09:26:00,48.3,46.1,29.88,NNW,341,0.0,2.0,92,0.00,,,0.00,WeatherCatV1.00B22,2013-02-08 14:26:00,
2013-02-08 09:31:00,48.4,45.9,29.88,NW,305,1.0,1.0,91,0.00,,,0.00,WeatherCatV1.00B22,2013-02-08 14:31:00,
2013-02-08 09:36:00,48.5,46.0,29.88,WNW,288,0.0,1.0,91,0.00,,,0.00,WeatherCatV1.00B22,2013-02-08 14:36:00,
2013-02-08 09:41:00,48.6,46.1,29.88,NNW,341,1.0,4.0,91,0.00,,,0.00,WeatherCatV1.00B22,2013-02-08 14:41:00,
2013-02-08 09:46:00,48.8,46.3,29.88,West,265,2.0,3.0,91,0.00,,,0.00,WeatherCatV1.00B22,2013-02-08 14:46:00,
2013-02-08 09:51:00,49.2,46.7,29.88,WNW,284,1.0,2.0,91,0.00,,,0.00,WeatherCatV1.00B22,2013-02-08 14:51:00,
2013-02-08 09:56:00,49.5,46.7,29.89,NNE,13,0.0,1.0,90,0.00,,,0.00,WeatherCatV1.00B22,2013-02-08 14:56:00,
2013-02-08 10:01:00,49.6,46.5,29.89,NW,310,1.0,2.0,89,0.00,,,0.00,WeatherCatV1.00B22,2013-02-08 15:01:00,
2013-02-08 10:06:00,49.7,46.6,29.89,West,277,0.0,2.0,89,0.00,,,0.00,WeatherCatV1.00B22,2013-02-08 15:06:00,
2013-02-08 10:11:00,49.7,46.6,29.89,West,279,1.0,1.0,89,0.00,,,0.00,WeatherCatV1.00B22,2013-02-08 15:11:00,
2013-02-08 10:16:00,49.7,46.6,29.89,WNW,289,0.0,1.0,89,0.00,,,0.00,WeatherCatV1.00B22,2013-02-08 15:16:00,
2013-02-08 10:21:00,49.7,46.6,29.89,NW,316,1.0,1.0,89,0.00,,,0.00,WeatherCatV1.00B22,2013-02-08 15:21:00,
2013-02-08 10:26:00,49.7,46.6,29.89,South,178,2.0,3.0,89,0.00,,,0.00,WeatherCatV1.00B22,2013-02-08 15:26:00,
2013-02-08 10:31:00,49.9,46.8,29.89,NW,313,0.0,1.0,89,0.00,,,0.00,WeatherCatV1.00B22,2013-02-08 15:31:00,
2013-02-08 10:36:00,50.1,46.7,29.89,SW,217,2.0,2.0,88,0.00,,,0.00,WeatherCatV1.00B22,2013-02-08 15:36:00,
2013-02-08 10:41:00,50.3,46.9,29.89,WSW,257,1.0,1.0,88,0.00,,,0.00,WeatherCatV1.00B22,2013-02-08 15:41:00,
2013-02-08 10:46:00,50.5,47.1,29.89,West,261,1.0,3.0,88,0.00,,,0.00,WeatherCatV1.00B22,2013-02-08 15:46:00,
2013-02-08 10:51:00,50.5,47.1,29.89,WSW,250,0.0,5.0,88,0.00,,,0.00,WeatherCatV1.00B22,2013-02-08 15:51:00,
2013-02-08 10:56:00,50.6,47.2,29.89,West,270,4.0,4.0,88,0.00,,,0.00,WeatherCatV1.00B22,2013-02-08 15:56:00,
2013-02-08 11:01:00,50.6,47.2,29.89,NNE,14,0.0,1.0,88,0.00,,,0.00,WeatherCatV1.00B22,2013-02-08 16:01:00,
2013-02-08 11:06:00,50.5,47.1,29.89,SW,232,0.0,3.0,88,0.00,,,0.00,WeatherCatV1.00B22,2013-02-08 16:06:00,
2013-02-08 11:11:00,50.4,47.0,29.89,NNW,329,1.0,2.0,88,0.00,,,0.00,WeatherCatV1.00B22,2013-02-08 16:11:00,
2013-02-08 11:16:00,50.4,47.0,29.89,WSW,245,1.0,1.0,88,0.00,,,0.00,WeatherCatV1.00B22,2013-02-08 16:16:00,
2013-02-08 11:21:00,50.5,47.4,29.89,WSW,245,0.0,0.0,89,0.00,,,0.00,WeatherCatV1.00B22,2013-02-08 16:21:00,
2013-02-08 11:26:00,50.7,47.6,29.89,SW,231,1.0,2.0,89,0.00,,,0.00,WeatherCatV1.00B22,2013-02-08 16:26:00,
2013-02-08 11:31:00,50.9,47.5,29.88,NW,307,0.0,1.0,88,0.00,,,0.00,WeatherCatV1.00B22,2013-02-08 16:31:00,
2013-02-08 11:36:00,51.1,47.7,29.88,NW,305,0.0,1.0,88,0.00,,,0.00,WeatherCatV1.00B22,2013-02-08 16:36:00,
2013-02-08 11:41:00,51.3,47.9,29.88,NNW,345,2.0,3.0,88,0.00,,,0.00,WeatherCatV1.00B22,2013-02-08 16:41:00,
2013-02-08 11:46:00,51.3,47.3,29.88,WNW,303,0.0,2.0,86,0.00,,,0.00,WeatherCatV1.00B22,2013-02-08 16:46:00,
2013-02-08 11:51:00,51.2,47.5,29.88,NW,321,2.0,4.0,87,0.00,,,0.00,WeatherCatV1.00B22,2013-02-08 16:51:00,
2013-02-08 11:56:00,51.1,47.4,29.88,WSW,257,0.0,1.0,87,0.00,,,0.00,WeatherCatV1.00B22,2013-02-08 16:56:00,
2013-02-08 12:01:00,51.0,47.0,29.88,SW,224,1.0,2.0,86,0.00,,,0.00,WeatherCatV1.00B22,2013-02-08 17:01:00,
2013-02-08 12:06:00,50.9,47.2,29.88,WSW,248,0.0,3.0,87,0.00,,,0.00,WeatherCatV1.00B22,2013-02-08 17:06:00,
2013-02-08 12:11:00,50.8,47.1,29.88,WSW,248,0.0,2.0,87,0.00,,,0.00,WeatherCatV1.00B22,2013-02-08 17:11:00,
2013-02-08 12:16:00,50.7,47.3,29.88,NNW,335,2.0,2.0,88,0.00,,,0.00,WeatherCatV1.00B22,2013-02-08 17:16:00,
2013-02-08 12:21:00,50.6,47.2,29.88,NNW,333,0.0,2.0,88,0.00,,,0.00,WeatherCatV1.00B22,2013-02-08 17:21:00,
2013-02-08 12:26:00,50.5,47.1,29.88,SW,219,2.0,4.0,88,0.00,,,0.00,WeatherCatV1.00B22,2013-02-08 17:26:00,
2013-02-08 12:31:00,50.4,47.3,29.88,NW,323,2.0,4.0,89,0.00,,,0.00,WeatherCatV1.00B22,2013-02-08 17:31:00,
2013-02-08 12:36:00,50.4,47.3,29.88,North,349,0.0,5.0,89,0.00,,,0.00,WeatherCatV1.00B22,2013-02-08 17:36:00,
2013-02-08 12:41:00,50.4,47.3,29.88,NNW,342,0.0,1.0,89,0.00,,,0.00,WeatherCatV1.00B22,2013-02-08 17:41:00,
2013-02-08 12:46:00,50.5,47.7,29.88,North,350,3.0,4.0,90,0.00,,,0.00,WeatherCatV1.00B22,2013-02-08 17:46:00,
2013-02-08 12:51:00,50.6,47.5,29.87,West,273,0.0,2.0,89,0.00,,,0.00,WeatherCatV1.00B22,2013-02-08 17:51:00,
2013-02-08 12:56:00,50.6,47.8,29.87,WNW,296,1.0,4.0,90,0.00,,,0.00,WeatherCatV1.00B22,2013-02-08 17:56:00,
2013-02-08 13:01:00,50.8,47.7,29.87,WNW,285,1.0,4.0,89,0.00,,,0.00,WeatherCatV1.00B22,2013-02-08 18:01:00,
2013-02-08 13:06:00,50.9,47.8,29.86,SW,220,1.0,3.0,89,0.00,,,0.00,WeatherCatV1.00B22,2013-02-08 18:06:00,
2013-02-08 13:11:00,51.3,48.5,29.86,NW,309,3.0,3.0,90,0.00,,,0.00,WeatherCatV1.00B22,2013-02-08 18:11:00,
2013-02-08 13:16:00,51.7,48.3,29.86,NW,304,0.0,2.0,88,0.00,,,0.00,WeatherCatV1.00B22,2013-02-08 18:16:00,
2013-02-08 13:21:00,52.1,48.7,29.86,WSW,246,4.0,4.0,88,0.00,,,0.00,WeatherCatV1.00B22,2013-02-08 18:21:00,
2013-02-08 13:26:00,52.4,48.6,29.86,ESE,110,1.0,3.0,87,0.00,,,0.00,WeatherCatV1.00B22,2013-02-08 18:26:00,
2013-02-08 13:31:00,52.7,48.3,29.86,West,281,0.0,2.0,85,0.00,,,0.00,WeatherCatV1.00B22,2013-02-08 18:31:00,
2013-02-08 13:36:00,53.0,48.9,29.86,West,273,3.0,4.0,86,0.00,,,0.00,WeatherCatV1.00B22,2013-02-08 18:36:00,
2013-02-08 13:41:00,53.3,48.6,29.86,WSW,252,0.0,5.0,84,0.00,,,0.00,WeatherCatV1.00B22,2013-02-08 18:41:00,
2013-02-08 13:46:00,53.5,48.5,29.86,WSW,252,1.0,4.0,83,0.00,,,0.00,WeatherCatV1.00B22,2013-02-08 18:46:00,
2013-02-08 13:51:00,53.5,48.5,29.86,SW,232,0.0,5.0,83,0.00,,,0.00,WeatherCatV1.00B22,2013-02-08 18:51:00,
2013-02-08 13:56:00,53.6,48.6,29.85,NW,311,0.0,2.0,83,0.00,,,0.00,WeatherCatV1.00B22,2013-02-08 18:56:00,
2013-02-08 14:01:00,53.6,48.6,29.85,NNW,335,5.0,5.0,83,0.00,,,0.00,WeatherCatV1.00B22,2013-02-08 19:01:00,
2013-02-08 14:06:00,53.9,48.5,29.84,NNW,333,3.0,3.0,82,0.00,,,0.00,WeatherCatV1.00B22,2013-02-08 19:06:00,
2013-02-08 14:11:00,53.9,48.2,29.84,NW,304,2.0,5.0,81,0.00,,,0.00,WeatherCatV1.00B22,2013-02-08 19:11:00,
2013-02-08 14:16:00,53.9,48.5,29.84,WSW,257,1.0,3.0,82,0.00,,,0.00,WeatherCatV1.00B22,2013-02-08 19:16:00,
2013-02-08 14:21:00,54.0,48.6,29.84,NNW,338,2.0,3.0,82,0.00,,,0.00,WeatherCatV1.00B22,2013-02-08 19:21:00,
2013-02-08 14:26:00,54.1,48.1,29.84,NNW,343,1.0,3.0,80,0.00,,,0.00,WeatherCatV1.00B22,2013-02-08 19:26:00,
2013-02-08 14:31:00,54.2,48.5,29.84,WSW,244,1.0,3.0,81,0.00,,,0.00,WeatherCatV1.00B22,2013-02-08 19:31:00,
2013-02-08 14:36:00,54.6,49.2,29.84,ENE,60,1.0,3.0,82,0.00,,,0.00,WeatherCatV1.00B22,2013-02-08 19:36:00,
2013-02-08 14:41:00,55.1,49.0,29.84,West,281,0.0,3.0,80,0.00,,,0.00,WeatherCatV1.00B22,2013-02-08 19:41:00,
2013-02-08 14:46:00,55.5,49.4,29.84,South,175,0.0,2.0,80,0.00,,,0.00,WeatherCatV1.00B22,2013-02-08 19:46:00,
2013-02-08 14:51:00,55.9,49.5,29.84,North,10,2.0,3.0,79,0.00,,,0.00,WeatherCatV1.00B22,2013-02-08 19:51:00,
2013-02-08 14:56:00,56.0,49.2,29.84,WNW,287,2.0,5.0,78,0.00,,,0.00,WeatherCatV1.00B22,2013-02-08 19:56:00,
2013-02-08 15:01:00,56.0,48.5,29.85,WNW,287,3.0,5.0,76,0.00,,,0.00,WeatherCatV1.00B22,2013-02-08 20:01:00,
2013-02-08 15:06:00,55.8,48.0,29.85,NNE,15,7.0,8.0,75,0.00,,,0.00,WeatherCatV1.00B22,2013-02-08 20:06:00,
2013-02-08 15:11:00,55.7,47.5,29.85,NW,308,5.0,5.0,74,0.00,,,0.00,WeatherCatV1.00B22,2013-02-08 20:11:00,
2013-02-08 15:16:00,55.5,47.7,29.85,NNW,348,3.0,4.0,75,0.00,,,0.00,WeatherCatV1.00B22,2013-02-08 20:16:00,
2013-02-08 15:21:00,55.4,47.3,29.86,NW,311,6.0,9.0,74,0.00,,,0.00,WeatherCatV1.00B22,2013-02-08 20:21:00,
2013-02-08 15:26:00,55.1,47.0,29.86,NE,44,3.0,5.0,74,0.00,,,0.00,WeatherCatV1.00B22,2013-02-08 20:26:00,
2013-02-08 15:31:00,54.9,46.4,29.86,NNW,331,5.0,5.0,73,0.00,,,0.00,WeatherCatV1.00B22,2013-02-08 20:31:00,
2013-02-08 15:36:00,54.8,46.3,29.86,NW,315,3.0,5.0,73,0.00,,,0.00,WeatherCatV1.00B22,2013-02-08 20:36:00,
2013-02-08 15:41:00,54.7,46.6,29.86,West,272,5.0,8.0,74,0.00,,,0.00,WeatherCatV1.00B22,2013-02-08 20:41:00,
2013-02-08 15:46:00,54.6,46.5,29.87,NNE,21,2.0,3.0,74,0.00,,,0.00,WeatherCatV1.00B22,2013-02-08 20:46:00,
2013-02-08 15:51:00,54.6,46.1,29.87,NNW,338,4.0,4.0,73,0.00,,,0.00,WeatherCatV1.00B22,2013-02-08 20:51:00,
2013-02-08 15:56:00,54.6,46.1,29.86,North,11,0.0,4.0,73,0.00,,,0.00,WeatherCatV1.00B22,2013-02-08 20:56:00,
2013-02-08 16:01:00,54.6,46.1,29.86,WNW,298,2.0,4.0,73,0.00,,,0.00,WeatherCatV1.00B22,2013-02-08 21:01:00,
2013-02-08 16:06:00,54.6,44.3,29.87,NNE,26,2.0,4.0,68,0.00,,,0.00,WeatherCatV1.00B22,2013-02-08 21:06:00,
2013-02-08 16:11:00,54.6,43.9,29.86,NNW,337,4.0,5.0,67,0.00,,,0.00,WeatherCatV1.00B22,2013-02-08 21:11:00,
2013-02-08 16:16:00,54.6,43.5,29.87,NW,313,2.0,4.0,66,0.00,,,0.00,WeatherCatV1.00B22,2013-02-08 21:16:00,
2013-02-08 16:21:00,54.6,43.1,29.86,NW,312,2.0,8.0,65,0.00,,,0.00,WeatherCatV1.00B22,2013-02-08 21:21:00,
2013-02-08 16:26:00,54.5,43.0,29.86,NW,315,0.0,2.0,65,0.00,,,0.00,WeatherCatV1.00B22,2013-02-08 21:26:00,
2013-02-08 16:31:00,54.5,43.0,29.86,West,261,3.0,10.0,65,0.00,,,0.00,WeatherCatV1.00B22,2013-02-08 21:31:00,
2013-02-08 16:36:00,54.5,43.0,29.87,WNW,296,0.0,1.0,65,0.00,,,0.00,WeatherCatV1.00B22,2013-02-08 21:36:00,
2013-02-08 16:41:00,54.5,42.6,29.87,North,355,0.0,2.0,64,0.00,,,0.00,WeatherCatV1.00B22,2013-02-08 21:41:00,
2013-02-08 16:46:00,54.6,41.8,29.87,North,5,0.0,2.0,62,0.00,,,0.00,WeatherCatV1.00B22,2013-02-08 21:46:00,
2013-02-08 16:51:00,54.6,42.3,29.87,WNW,294,4.0,7.0,63,0.00,,,0.00,WeatherCatV1.00B22,2013-02-08 21:51:00,
2013-02-08 16:56:00,54.6,41.8,29.87,WNW,286,4.0,8.0,62,0.00,,,0.00,WeatherCatV1.00B22,2013-02-08 21:56:00,
2013-02-08 17:01:00,54.6,41.4,29.88,WNW,293,3.0,6.0,61,0.00,,,0.00,WeatherCatV1.00B22,2013-02-08 22:01:00,
2013-02-08 17:06:00,54.5,40.9,29.88,NW,323,5.0,5.0,60,0.00,,,0.00,WeatherCatV1.00B22,2013-02-08 22:06:00,
2013-02-08 17:11:00,54.4,40.8,29.88,NW,308,3.0,6.0,60,0.00,,,0.00,WeatherCatV1.00B22,2013-02-08 22:11:00,
2013-02-08 17:16:00,54.2,39.3,29.88,WNW,286,1.0,10.0,57,0.00,,,0.00,WeatherCatV1.00B22,2013-02-08 22:16:00,
2013-02-08 17:21:00,54.1,39.2,29.89,NW,325,2.0,5.0,57,0.00,,,0.00,WeatherCatV1.00B22,2013-02-08 22:21:00,
2013-02-08 17:26:00,54.0,37.3,29.89,NW,325,2.0,4.0,53,0.00,,,0.00,WeatherCatV1.00B22,2013-02-08 22:26:00,
2013-02-08 17:31:00,53.9,37.6,29.89,NNW,332,4.0,4.0,54,0.00,,,0.00,WeatherCatV1.00B22,2013-02-08 22:31:00,
2013-02-08 17:36:00,53.7,37.5,29.89,NW,315,1.0,5.0,54,0.00,,,0.00,WeatherCatV1.00B22,2013-02-08 22:36:00,
2013-02-08 17:41:00,53.6,37.8,29.90,WNW,288,7.0,7.0,55,0.00,,,0.00,WeatherCatV1.00B22,2013-02-08 22:41:00,
2013-02-08 17:46:00,53.3,38.5,29.90,NW,321,1.0,4.0,57,0.00,,,0.00,WeatherCatV1.00B22,2013-02-08 22:46:00,
2013-02-08 17:51:00,53.1,38.3,29.90,WNW,293,0.0,8.0,57,0.00,,,0.00,WeatherCatV1.00B22,2013-02-08 22:51:00,
2013-02-08 17:56:00,52.9,37.6,29.90,NW,317,2.0,3.0,56,0.00,,,0.00,WeatherCatV1.00B22,2013-02-08 22:56:00,
2013-02-08 18:01:00,52.6,37.8,29.90,NW,326,1.0,2.0,57,0.00,,,0.00,WeatherCatV1.00B22,2013-02-08 23:01:00,
2013-02-08 18:06:00,52.3,36.6,29.91,WNW,301,4.0,5.0,55,0.00,,,0.00,WeatherCatV1.00B22,2013-02-08 23:06:00,
2013-02-08 18:11:00,52.0,36.3,29.91,NW,309,2.0,7.0,55,0.00,,,0.00,WeatherCatV1.00B22,2013-02-08 23:11:00,
2013-02-08 18:16:00,51.7,36.1,29.91,NW,318,3.0,3.0,55,0.00,,,0.00,WeatherCatV1.00B22,2013-02-08 23:16:00,
2013-02-08 18:21:00,51.4,35.8,29.91,WNW,302,4.0,5.0,55,0.00,,,0.00,WeatherCatV1.00B22,2013-02-08 23:21:00,
2013-02-08 18:26:00,51.1,35.5,29.91,WNW,288,2.0,2.0,55,0.00,,,0.00,WeatherCatV1.00B22,2013-02-08 23:26:00,
2013-02-08 18:31:00,50.8,35.7,29.92,NNW,327,2.0,3.0,56,0.00,,,0.00,WeatherCatV1.00B22,2013-02-08 23:31:00,
2013-02-08 18:36:00,50.5,35.4,29.92,NW,325,2.0,4.0,56,0.00,,,0.00,WeatherCatV1.00B22,2013-02-08 23:36:00,
2013-02-08 18:41:00,50.2,35.6,29.92,WNW,283,0.0,4.0,57,0.00,,,0.00,WeatherCatV1.00B22,2013-02-08 23:41:00,
2013-02-08 18:46:00,49.9,35.7,29.92,West,272,0.0,4.0,58,0.00,,,0.00,WeatherCatV1.00B22,2013-02-08 23:46:00,
2013-02-08 18:51:00,49.7,36.0,29.92,WNW,296,0.0,2.0,59,0.00,,,0.00,WeatherCatV1.00B22,2013-02-08 23:51:00,
2013-02-08 18:56:00,49.3,36.0,29.93,NW,306,1.0,2.0,60,0.00,,,0.00,WeatherCatV1.00B22,2013-02-08 23:56:00,
2013-02-08 19:01:00,49.1,35.8,29.93,WNW,302,1.0,2.0,60,0.00,,,0.00,WeatherCatV1.00B22,2013-02-09 00:01:00,
2013-02-08 19:06:00,48.8,36.0,29.93,NW,309,0.0,2.0,61,0.00,,,0.00,WeatherCatV1.00B22,2013-02-09 00:06:00,
2013-02-08 19:11:00,48.5,35.7,29.93,NW,316,2.0,2.0,61,0.00,,,0.00,WeatherCatV1.00B22,2013-02-09 00:11:00,
2013-02-08 19:16:00,48.1,35.7,29.94,NW,308,3.0,4.0,62,0.00,,,0.00,WeatherCatV1.00B22,2013-02-09 00:16:00,
2013-02-08 19:21:00,47.8,35.8,29.93,WNW,298,3.0,10.0,63,0.00,,,0.00,WeatherCatV1.00B22,2013-02-09 00:21:00,
2013-02-08 19:26:00,47.6,35.6,29.94,NNW,329,1.0,5.0,63,0.00,,,0.00,WeatherCatV1.00B22,2013-02-09 00:26:00,
2013-02-08 19:31:00,47.4,35.4,29.94,NNW,345,1.0,3.0,63,0.00,,,0.00,WeatherCatV1.00B22,2013-02-09 00:31:00,
2013-02-08 19:36:00,47.2,35.7,29.94,NW,324,2.0,4.0,64,0.00,,,0.00,WeatherCatV1.00B22,2013-02-09 00:36:00,
2013-02-08 19:41:00,47.0,35.9,29.94,NW,323,4.0,5.0,65,0.00,,,0.00,WeatherCatV1.00B22,2013-02-09 00:41:00,
2013-02-08 19:46:00,46.9,35.4,29.95,NW,322,1.0,2.0,64,0.00,,,0.00,WeatherCatV1.00B22,2013-02-09 00:46:00,
2013-02-08 19:51:00,46.7,35.2,29.95,WSW,250,0.0,1.0,64,0.00,,,0.00,WeatherCatV1.00B22,2013-02-09 00:51:00,
2013-02-08 19:56:00,46.5,35.4,29.95,SSW,206,2.0,2.0,65,0.00,,,0.00,WeatherCatV1.00B22,2013-02-09 00:56:00,
2013-02-08 20:01:00,46.3,36.0,29.95,South,182,0.0,1.0,67,0.00,,,0.00,WeatherCatV1.00B22,2013-02-09 01:01:00,
2013-02-08 20:06:00,46.0,35.7,29.96,SSW,198,1.0,1.0,67,0.00,,,0.00,WeatherCatV1.00B22,2013-02-09 01:06:00,
2013-02-08 20:11:00,45.8,36.2,29.96,SW,228,2.0,2.0,69,0.00,,,0.00,WeatherCatV1.00B22,2013-02-09 01:11:00,
2013-02-08 20:16:00,45.6,36.0,29.96,WSW,242,0.0,0.0,69,0.00,,,0.00,WeatherCatV1.00B22,2013-02-09 01:16:00,
2013-02-08 20:21:00,45.3,36.1,29.96,WNW,301,1.0,4.0,70,0.00,,,0.00,WeatherCatV1.00B22,2013-02-09 01:21:00,
2013-02-08 20:26:00,45.1,35.9,29.96,North,350,1.0,2.0,70,0.00,,,0.00,WeatherCatV1.00B22,2013-02-09 01:26:00,
2013-02-08 20:31:00,45.0,35.8,29.96,North,5,1.0,4.0,70,0.00,,,0.00,WeatherCatV1.00B22,2013-02-09 01:31:00,
2013-02-08 20:36:00,44.9,35.7,29.97,North,355,1.0,3.0,70,0.00,,,0.00,WeatherCatV1.00B22,2013-02-09 01:36:00,
2013-02-08 20:41:00,44.7,35.5,29.97,North,355,1.0,2.0,70,0.00,,,0.00,WeatherCatV1.00B22,2013-02-09 01:41:00,
2013-02-08 20:46:00,44.6,35.4,29.97,North,0,1.0,2.0,70,0.00,,,0.00,WeatherCatV1.00B22,2013-02-09 01:46:00,
2013-02-08 20:51:00,44.4,35.2,29.97,NW,318,2.0,2.0,70,0.00,,,0.00,WeatherCatV1.00B22,2013-02-09 01:51:00,
2013-02-08 20:57:00,44.2,35.0,29.98,NW,318,2.0,2.0,70,0.00,,,0.00,WeatherCatV1.00B22,2013-02-09 01:57:00,
2013-02-08 21:02:00,44.0,34.9,29.98,NNW,331,2.0,3.0,70,0.00,,,0.00,WeatherCatV1.00B22,2013-02-09 02:02:00,
2013-02-08 21:06:00,43.8,34.7,29.98,NW,323,3.0,3.0,70,0.00,,,0.00,WeatherCatV1.00B22,2013-02-09 02:06:00,
2013-02-08 21:11:00,43.6,34.8,29.98,NW,314,2.0,5.0,71,0.00,,,0.00,WeatherCatV1.00B22,2013-02-09 02:11:00,
2013-02-08 21:16:00,43.4,34.6,29.99,WNW,296,2.0,4.0,71,0.00,,,0.00,WeatherCatV1.00B22,2013-02-09 02:16:00,
2013-02-08 21:21:00,43.2,34.4,29.99,WNW,299,4.0,5.0,71,0.00,,,0.00,WeatherCatV1.00B22,2013-02-09 02:21:00,
2013-02-08 21:26:00,43.0,34.3,29.99,NW,305,2.0,5.0,71,0.00,,,0.00,WeatherCatV1.00B22,2013-02-09 02:26:00,
2013-02-08 21:31:00,42.9,34.5,29.99,NNW,336,1.0,4.0,72,0.00,,,0.00,WeatherCatV1.00B22,2013-02-09 02:31:00,
2013-02-08 21:36:00,42.7,34.3,29.99,NW,306,1.0,4.0,72,0.00,,,0.00,WeatherCatV1.00B22,2013-02-09 02:36:00,
2013-02-08 21:41:00,42.5,34.1,29.99,NW,323,2.0,4.0,72,0.00,,,0.00,WeatherCatV1.00B22,2013-02-09 02:41:00,
2013-02-08 21:46:00,42.4,34.0,30.00,NW,315,3.0,4.0,72,0.00,,,0.00,WeatherCatV1.00B22,2013-02-09 02:46:00,
2013-02-08 21:51:00,42.3,34.3,30.00,NNW,327,0.0,1.0,73,0.00,,,0.00,WeatherCatV1.00B22,2013-02-09 02:51:00,
2013-02-08 21:56:00,42.2,34.2,30.01,NNW,337,0.0,3.0,73,0.00,,,0.00,WeatherCatV1.00B22,2013-02-09 02:56:00,
2013-02-08 22:01:00,42.0,34.0,30.02,NW,312,2.0,7.0,73,0.00,,,0.00,WeatherCatV1.00B22,2013-02-09 03:01:00,
2013-02-08 22:07:00,41.9,34.2,30.02,NW,310,1.0,4.0,74,0.00,,,0.00,WeatherCatV1.00B22,2013-02-09 03:07:00,
2013-02-08 22:11:00,41.7,34.0,30.03,NW,315,3.0,5.0,74,0.00,,,0.00,WeatherCatV1.00B22,2013-02-09 03:11:00,
2013-02-08 22:16:00,41.6,33.6,30.02,NW,315,2.0,4.0,73,0.00,,,0.00,WeatherCatV1.00B22,2013-02-09 03:16:00,
2013-02-08 22:21:00,41.4,33.4,30.02,NW,307,0.0,3.0,73,0.00,,,0.00,WeatherCatV1.00B22,2013-02-09 03:21:00,
2013-02-08 22:26:00,41.3,33.3,30.02,NNW,340,1.0,3.0,73,0.00,,,0.00,WeatherCatV1.00B22,2013-02-09 03:26:00,
2013-02-08 22:32:00,41.1,33.5,30.02,NW,311,3.0,3.0,74,0.00,,,0.00,WeatherCatV1.00B22,2013-02-09 03:32:00,
2013-02-08 22:37:00,40.9,33.3,30.03,NW,319,0.0,1.0,74,0.00,,,0.00,WeatherCatV1.00B22,2013-02-09 03:37:00,
2013-02-08 22:41:00,40.7,33.1,30.03,North,355,0.0,2.0,74,0.00,,,0.00,WeatherCatV1.00B22,2013-02-09 03:41:00,
2013-02-08 22:47:00,40.6,33.3,30.03,NNW,335,0.0,3.0,75,0.00,,,0.00,WeatherCatV1.00B22,2013-02-09 03:47:00,
2013-02-08 22:51:00,40.4,33.1,30.03,NW,317,1.0,2.0,75,0.00,,,0.00,WeatherCatV1.00B22,2013-02-09 03:51:00,
2013-02-08 22:57:00,40.3,33.0,30.02,NW,317,2.0,3.0,75,0.00,,,0.00,WeatherCatV1.00B22,2013-02-09 03:57:00,
2013-02-08 23:02:00,40.2,32.9,30.02,West,281,2.0,2.0,75,0.00,,,0.00,WeatherCatV1.00B22,2013-02-09 04:02:00,
2013-02-08 23:06:00,40.0,32.7,30.02,NW,321,5.0,5.0,75,0.00,,,0.00,WeatherCatV1.00B22,2013-02-09 04:06:00,
2013-02-08 23:12:00,40.0,32.7,30.02,NW,323,5.0,5.0,75,0.00,,,0.00,WeatherCatV1.00B22,2013-02-09 04:12:00,
2013-02-08 23:17:00,39.9,32.6,30.02,WNW,287,1.0,3.0,75,0.00,,,0.00,WeatherCatV1.00B22,2013-02-09 04:17:00,
2013-02-08 23:22:00,39.9,32.6,30.02,NNW,333,3.0,4.0,75,0.00,,,0.00,WeatherCatV1.00B22,2013-02-09 04:22:00,
2013-02-08 23:27:00,39.8,32.5,30.01,NW,308,2.0,4.0,75,0.00,,,0.00,WeatherCatV1.00B22,2013-02-09 04:27:00,
2013-02-08 23:32:00,39.7,32.4,30.01,NW,306,0.0,3.0,75,0.00,,,0.00,WeatherCatV1.00B22,2013-02-09 04:32:00,
2013-02-08 23:36:00,39.7,32.4,30.01,North,0,2.0,4.0,75,0.00,,,0.00,WeatherCatV1.00B22,2013-02-09 04:36:00,
2013-02-08 23:41:00,39.6,32.3,30.01,WNW,302,4.0,4.0,75,0.00,,,0.00,WeatherCatV1.00B22,2013-02-09 04:41:00,
2013-02-08 23:46:00,39.4,32.5,30.00,WNW,300,2.0,5.0,76,0.00,,,0.00,WeatherCatV1.00B22,2013-02-09 04:46:00,
2013-02-08 23:52:00,39.2,32.3,30.00,West,279,2.0,2.0,76,0.00,,,0.00,WeatherCatV1.00B22,2013-02-09 04:52:00,
2013-02-08 23:57:00,39.1,32.5,30.00,South,183,0.0,2.0,77,0.00,,,0.00,WeatherCatV1.00B22,2013-02-09 04:57:00,